Wind_Speed
21 21 21 21 21 20 18 17 15 14 13 12 12 12 11 11 11 12 12 12 12 11 11 12 11 10 10 9 9 8 6 5 2 3 4 6 9 12 13 11 12 12 14 18 17 16 17 14 13 12 9 7 7 6 6 5 4 2 1 2 3 2 0 1 4 3 0 3 7 9 9 4 5 6 5 6 8 9 9 8 7 8 8 9 13 18 22 24
21 21 21 21 21 21 20 18 17 15 13 12 12 12 11 11 11 11 11 11 11 11 10 11 10 10 9 9 9 8 6 4 2 3 6 10 11 13 15 13 12 12 14 17 17 16 16 15 15 13 9 7 5 5 5 5 5 3 2 2 2 2 1 3 6 6 3 3 9 10 9 5 4 6 5 5 9 9 8 8 8 11 12 13 17 20 23 24
21 21 21 21 21 21 21 20 18 15 13 12 11 11 11 11 11 11 11 11 11 10 10 10 10 9 9 9 9 8 7 4 1 4 9 12 13 14 15 14 12 11 9 9 13 15 10 10 14 11 7 6 3 5 4 5 6 3 2 1 1 4 3 9 10 7 5 4 9 11 9 5 4 5 4 4 8 8 6 7 8 11 14 16 19 21 23 24
20 21 21 21 21 21 21 21 19 17 14 12 11 11 11 11 10 10 10 10 11 10 9 10 9 9 9 8 8 8 8 3 4 8 11 11 14 15 14 13 11 9 7 6 11 12 6 8 13 9 6 6 3 4 4 6 6 3 4 2 3 7 5 8 8 5 5 5 8 10 9 7 5 6 3 3 5 4 3 5 6 11 16 18 20 21 22 23
20 20 20 20 21 21 22 21 20 18 15 13 11 10 10 10 10 10 10 10 10 10 9 10 9 8 8 8 8 8 8 2 6 11 12 11 12 13 12 12 11 11 12 11 12 10 7 8 10 8 6 4 2 4 4 7 8 3 5 6 5 5 1 1 5 6 5 6 8 10 9 7 7 6 4 4 3 2 1 3 6 11 16 19 21 22 21 22
19 20 20 20 20 21 21 22 21 19 16 13 11 10 10 10 10 10 10 9 10 10 9 9 9 8 7 8 7 7 7 1 7 11 13 11 12 12 11 11 11 14 15 14 13 11 9 8 9 6 5 5 3 2 2 4 8 3 3 5 3 1 1 2 5 6 5 6 8 9 7 6 7 6 5 4 3 3 1 2 7 11 14 17 20 21 21 21
19 19 19 20 20 20 20 21 21 19 17 14 12 10 10 9 9 9 9 9 9 10 9 9 9 8 7 7 7 6 4 2 6 12 13 12 13 11 11 11 12 16 18 16 14 13 11 10 8 4 5 5 4 3 4 1 7 5 3 1 2 1 2 4 6 6 6 6 7 8 7 6 7 4 3 4 3 3 1 4 9 11 13 16 19 19 20 21
19 19 19 19 19 20 20 20 21 20 17 15 12 11 10 9 9 8 9 9 9 9 9 9 9 8 7 6 6 5 3 3 6 14 14 13 15 13 12 13 13 16 18 17 15 12 9 8 7 5 4 3 6 6 3 3 7 5 2 2 4 3 3 5 6 7 8 8 7 7 6 5 5 3 2 4 4 3 3 7 10 12 14 16 18 18 18 19
19 19 19 19 19 19 19 19 20 20 18 15 13 11 9 9 8 8 8 8 8 9 8 9 9 8 7 5 7 6 4 5 7 14 15 14 17 17 15 15 15 16 16 15 13 10 8 7 5 4 5 6 8 7 3 1 3 3 2 4 5 5 5 5 6 8 9 8 6 6 5 4 4 4 4 6 6 5 5 8 11 13 14 15 16 17 17 17
19 19 19 19 19 18 18 19 19 20 19 16 13 11 9 8 8 8 8 8 8 8 8 8 8 8 7 5 6 4 6 6 8 14 16 15 17 18 17 14 14 16 16 14 13 11 9 7 3 4 7 7 8 5 5 4 2 4 5 6 6 6 5 4 6 7 7 7 5 4 3 3 4 5 4 5 8 7 7 9 11 12 13 14 15 15 15 15
19 19 19 18 18 18 18 18 18 18 19 17 14 11 10 8 8 7 7 7 7 7 7 7 8 8 7 5 8 4 6 8 9 14 17 17 17 16 16 14 13 17 16 13 13 11 9 7 4 7 6 5 8 3 5 5 2 7 7 7 7 7 5 4 5 6 5 5 5 4 4 3 4 5 3 5 8 9 8 9 10 11 11 13 14 14 15 14
19 19 19 18 18 18 17 17 17 17 18 18 15 12 9 8 7 7 7 7 7 7 7 7 7 7 8 8 10 7 5 7 9 14 19 18 16 13 14 15 14 16 14 11 11 9 8 6 6 8 6 8 9 2 5 4 2 7 5 4 7 7 5 5 5 5 3 3 5 5 4 5 5 6 4 6 7 9 9 9 10 11 11 12 13 13 14 15
19 19 19 18 18 18 17 17 16 16 17 18 16 12 9 8 7 7 7 7 7 7 6 7 7 7 8 7 9 10 9 8 7 11 18 20 18 17 18 17 15 13 10 8 7 7 7 6 7 8 8 9 6 3 3 1 4 6 3 2 4 5 4 6 5 6 4 3 6 5 1 3 6 6 5 6 8 9 10 9 10 11 11 12 12 13 14 15
19 19 19 18 18 18 17 16 16 16 16 17 16 12 9 7 7 7 7 7 6 6 6 6 6 6 7 7 8 10 12 13 9 8 15 22 21 19 19 17 15 13 9 6 4 5 5 4 6 9 8 8 6 5 5 4 4 4 4 2 1 0 4 7 6 7 5 4 7 6 1 3 5 7 6 6 8 10 10 10 10 11 12 12 13 13 13 15
19 19 18 18 18 17 17 16 16 16 15 16 15 12 9 7 7 6 6 7 6 6 6 6 7 5 7 8 9 9 12 14 12 9 12 20 21 18 18 18 15 12 9 6 4 4 3 3 6 9 6 5 7 7 5 4 3 3 2 1 1 2 4 7 6 8 4 4 8 6 1 4 5 7 8 6 8 10 9 9 11 11 12 12 13 13 13 14
19 18 18 18 17 17 17 16 15 15 15 15 14 11 8 7 7 6 7 7 7 6 5 5 5 4 5 6 8 9 8 11 13 11 11 16 19 16 17 16 13 12 9 6 5 3 3 4 7 9 8 6 6 5 3 2 3 2 2 3 3 3 2 5 6 8 5 5 8 7 2 3 5 6 9 7 7 10 9 9 11 11 12 12 12 13 13 13
18 18 18 17 17 17 16 15 15 15 14 14 13 10 8 7 7 7 7 7 7 6 5 5 3 4 7 5 7 7 7 9 12 13 12 16 17 13 15 16 13 12 9 6 5 5 5 6 6 6 6 5 3 3 2 2 1 1 2 2 2 3 2 3 5 7 8 6 6 7 4 2 6 6 9 8 8 9 9 9 11 11 11 11 11 12 13 14
18 18 18 17 17 16 16 15 14 14 14 12 11 9 8 8 7 7 7 7 6 4 5 7 3 3 7 10 7 4 6 9 11 13 14 18 17 13 15 15 12 12 10 8 7 7 7 6 6 5 4 5 3 4 2 2 3 4 4 4 2 1 1 1 4 8 11 8 5 6 5 2 6 7 8 9 8 9 8 9 10 11 12 12 12 12 13 14
18 18 18 17 16 15 15 15 13 13 12 9 9 8 7 6 6 7 7 7 6 5 4 6 11 4 1 7 6 3 5 7 11 13 16 19 18 14 14 13 13 14 11 8 8 10 8 5 6 5 5 4 1 2 4 5 6 7 6 5 5 2 1 3 5 7 9 7 6 6 4 3 7 8 7 9 9 9 9 9 9 10 12 12 13 13 13 15
18 18 17 17 16 15 15 14 12 12 9 6 8 6 4 4 4 3 5 9 11 11 9 6 13 10 3 3 4 3 4 7 10 12 17 20 19 16 15 14 14 13 10 8 7 8 7 6 6 6 4 1 1 2 5 6 6 7 7 5 5 3 1 4 5 6 6 5 4 5 4 3 4 6 7 9 10 10 10 10 10 11 12 12 13 13 14 14
18 18 17 16 16 15 15 14 11 11 7 4 6 5 4 5 4 1 1 10 13 13 15 12 13 15 10 3 2 3 3 6 10 12 17 20 20 17 15 15 13 10 11 11 6 6 6 7 7 7 4 1 2 3 5 6 6 7 7 5 4 2 3 5 4 6 6 5 3 4 5 5 4 5 7 9 9 10 11 11 11 12 12 12 13 13 13 13
19 18 17 16 15 14 15 13 11 10 6 4 5 4 5 5 5 5 5 9 12 12 15 15 15 16 16 12 9 7 4 5 10 14 18 21 20 17 15 15 12 10 11 10 7 5 7 8 8 7 4 3 4 4 5 7 8 7 5 5 3 0 3 5 4 6 6 4 2 3 4 4 5 6 7 10 9 8 10 12 12 12 13 12 13 13 13 13
19 18 17 16 14 14 15 13 12 9 5 5 6 6 6 5 4 6 6 8 11 12 14 15 17 17 18 16 16 14 9 8 11 16 20 21 21 18 15 14 13 12 12 11 10 9 7 6 6 5 4 6 6 5 6 7 7 6 5 5 2 1 2 3 5 7 7 3 0 1 4 3 5 6 7 10 10 8 9 11 11 12 13 13 12 13 13 14
19 19 18 16 15 13 14 14 10 5 4 6 7 8 8 6 5 7 6 9 8 7 11 12 15 16 16 13 12 15 14 11 10 15 22 22 20 17 14 14 14 12 12 13 14 13 8 3 3 1 3 6 8 6 8 6 6 5 3 4 4 2 3 1 6 8 6 5 3 4 5 4 6 7 7 9 10 9 9 11 11 12 13 12 12 13 13 14
20 19 18 17 15 12 14 12 6 4 7 8 7 9 8 5 5 4 4 8 6 5 7 9 10 12 14 11 10 13 12 13 12 13 21 23 19 15 12 13 13 12 14 15 14 12 10 6 5 5 4 6 8 7 7 5 6 4 3 4 8 7 4 3 8 8 5 5 6 6 5 2 4 6 7 8 9 9 10 11 12 13 13 13 14 14 14 14
20 19 18 17 16 13 11 7 5 8 9 7 6 9 9 5 4 2 3 6 4 4 4 7 7 8 13 13 14 13 8 13 16 13 18 22 19 15 12 11 10 11 13 13 9 7 8 7 8 10 10 9 8 8 7 4 6 3 6 6 9 6 4 6 8 7 3 2 5 5 5 1 3 6 7 8 9 10 10 11 12 14 15 15 15 15 15 15
21 19 18 17 16 15 11 7 9 11 8 5 6 8 8 6 3 3 4 5 3 2 3 6 5 5 8 12 19 14 3 10 16 15 18 20 18 14 11 10 9 9 8 7 7 6 8 10 9 10 11 9 8 7 5 4 7 2 9 8 6 2 5 8 8 6 1 3 5 5 4 3 2 4 6 8 9 10 11 11 12 14 15 16 16 16 16 16
20 19 18 16 15 15 14 12 12 10 7 7 7 8 7 4 2 4 5 4 2 2 2 5 4 4 5 11 22 16 3 10 14 15 19 19 17 14 12 13 11 10 9 8 8 6 9 14 13 12 11 9 8 4 3 2 6 4 8 7 3 1 5 7 6 4 1 2 4 6 4 4 2 4 5 8 9 10 13 13 13 15 16 17 17 17 17 17
19 18 17 16 15 14 14 14 12 9 8 7 7 8 6 2 3 4 6 4 2 3 2 5 6 6 7 10 19 17 7 6 7 13 20 18 16 12 10 13 13 13 13 13 11 5 5 8 8 10 11 7 6 2 3 2 3 4 2 2 2 3 5 5 5 2 2 6 4 6 7 5 2 5 6 7 7 9 11 12 13 17 19 18 18 18 17 17
19 17 17 16 15 14 14 12 10 8 7 7 7 6 4 4 4 6 5 2 1 2 3 6 6 7 10 11 13 16 11 5 4 14 19 16 17 14 7 8 12 11 11 13 14 6 4 3 2 6 9 5 1 1 1 3 2 0 3 4 5 5 5 4 3 2 4 6 3 6 7 5 3 3 4 3 4 5 6 8 12 17 20 20 19 18 18 18
18 16 16 16 15 14 14 11 9 6 5 7 5 5 6 5 4 6 4 1 0 2 5 6 5 7 12 12 11 14 12 6 9 15 15 12 14 14 8 7 9 9 9 10 12 10 8 6 4 7 9 5 4 4 3 2 4 5 5 5 4 4 5 4 4 4 6 4 3 4 5 6 5 2 3 3 3 3 3 5 10 16 20 21 20 19 18 18
16 14 15 16 15 14 13 11 9 6 7 7 6 7 7 6 6 6 2 1 2 3 3 4 5 6 11 12 10 14 13 7 10 15 13 11 11 11 11 10 8 9 10 9 10 12 12 11 10 10 10 9 8 6 5 5 6 7 5 6 6 4 5 6 5 5 5 2 5 3 4 5 6 4 3 5 7 6 4 4 6 11 18 22 21 20 19 18
14 14 14 14 16 15 14 13 11 11 11 8 7 8 7 6 6 4 3 3 1 2 1 2 3 3 7 10 10 13 14 9 11 13 13 13 12 11 14 14 13 12 9 9 11 9 9 11 14 13 10 12 11 7 6 6 6 8 6 6 7 6 6 7 6 5 4 2 5 3 3 5 6 4 4 5 6 6 6 5 5 7 12 19 22 21 19 18
12 12 13 13 15 15 15 14 12 14 14 10 8 8 8 8 4 0 4 4 2 1 1 1 3 4 7 10 9 12 13 9 11 12 12 13 11 10 14 15 16 14 9 9 10 9 9 9 14 14 10 12 14 12 10 5 5 8 6 6 7 6 6 6 5 6 5 2 4 4 3 5 4 2 3 3 4 5 6 5 6 7 9 14 20 23 20 19
10 11 12 13 14 14 13 12 12 14 15 13 9 7 8 8 4 2 3 2 1 1 2 3 5 6 9 9 9 13 13 8 11 12 10 12 11 10 11 12 15 14 10 8 6 9 11 8 11 15 10 12 16 16 12 8 5 6 5 6 7 5 5 4 2 4 3 1 3 5 4 5 2 2 5 5 5 7 7 6 7 9 11 12 17 22 22 20
8 9 10 11 12 12 10 10 14 17 18 14 9 8 9 6 2 1 0 2 2 3 5 5 6 6 8 8 7 14 14 10 11 11 9 11 12 11 12 11 14 16 12 8 5 7 10 7 10 12 9 12 13 12 13 10 5 4 5 7 4 2 5 5 3 2 3 6 4 4 5 5 3 5 7 7 6 8 9 9 10 10 13 14 16 21 23 21
7 7 7 7 9 11 9 10 15 20 19 13 9 8 6 4 1 1 2 2 2 4 7 5 4 3 7 8 7 13 14 10 12 11 8 10 11 12 13 11 14 18 15 11 6 4 7 7 11 12 11 11 7 6 10 9 6 3 4 5 4 1 5 5 4 4 5 8 4 4 7 7 4 4 5 6 7 7 8 8 9 11 14 15 16 20 23 22
8 4 4 6 9 9 10 12 17 21 17 11 10 8 4 2 1 1 1 3 4 4 6 5 1 2 4 6 8 13 14 11 12 11 9 8 8 11 14 11 13 18 19 15 9 4 6 7 10 14 13 10 8 7 8 8 10 7 4 1 3 5 6 5 5 6 6 7 5 6 7 6 5 4 3 6 6 4 6 7 8 10 14 15 16 20 23 22
7 0 2 5 6 7 11 15 20 19 13 8 9 8 4 3 3 3 3 4 5 5 5 4 2 2 3 3 5 11 14 12 11 10 9 8 7 10 13 12 12 17 20 18 11 4 5 7 6 12 12 10 9 9 8 9 10 8 6 4 5 5 4 4 5 6 6 6 6 6 5 5 5 4 6 6 3 1 3 6 7 9 13 15 16 20 23 23
6 2 2 2 5 10 14 18 18 14 10 7 7 4 3 4 5 5 6 5 5 6 5 4 3 3 3 2 2 6 11 12 11 10 9 9 8 8 11 12 11 15 20 20 14 8 6 7 6 8 11 10 8 9 12 11 10 9 9 8 7 4 3 4 5 6 6 6 6 5 5 4 0 1 5 5 0 0 1 3 5 8 12 15 16 19 21 22
3 3 3 8 12 16 17 15 11 9 8 6 6 5 3 3 5 6 7 7 7 8 7 6 6 5 4 3 3 3 6 10 10 10 9 10 9 6 9 14 12 12 16 16 14 10 7 6 8 6 8 10 12 11 12 10 6 7 9 9 10 8 6 6 6 6 6 6 6 5 6 4 3 3 2 2 1 1 0 2 5 8 12 14 15 17 19 21
3 2 6 11 13 15 12 8 7 7 7 5 3 4 2 3 6 7 6 7 8 8 8 7 8 8 7 6 4 3 5 8 9 10 9 10 11 8 11 17 16 13 13 12 12 13 8 5 8 8 8 12 11 7 4 3 3 7 7 8 10 9 9 9 7 6 6 5 5 5 6 2 4 3 0 1 1 1 2 3 4 8 11 13 14 15 17 20
4 2 8 11 10 9 6 6 6 6 6 3 1 3 4 4 6 6 5 7 7 6 7 6 7 8 7 6 5 5 6 7 8 10 9 10 12 11 12 17 17 15 12 10 11 13 9 6 8 8 8 9 8 6 4 3 4 8 8 9 10 10 11 10 7 5 5 5 4 5 7 3 4 4 2 2 3 3 4 4 5 8 11 12 12 12 13 15
4 2 6 8 8 6 5 4 6 7 6 4 4 6 7 6 7 7 6 7 6 5 6 6 7 7 6 5 5 5 5 5 8 10 9 8 8 8 10 15 15 13 11 9 10 11 9 7 8 8 7 9 8 7 6 6 6 8 10 12 14 14 13 9 6 4 5 8 8 7 7 3 4 5 3 3 5 5 5 5 6 8 9 11 10 9 9 11
3 1 4 6 6 5 5 3 2 5 6 6 6 6 6 6 7 7 7 7 6 6 6 6 6 6 6 6 6 7 7 6 6 6 6 7 5 3 7 14 16 14 12 12 13 12 9 8 8 9 10 10 11 10 8 8 8 9 11 13 16 17 15 10 6 7 7 7 8 8 7 2 4 5 4 5 6 5 5 6 7 6 7 7 7 7 9 11
4 2 5 7 7 6 5 2 3 3 5 5 5 5 5 5 5 5 6 6 6 7 7 6 6 6 6 7 7 8 9 9 7 5 4 6 5 4 5 11 16 17 15 14 15 11 7 9 11 12 12 10 11 11 8 7 9 11 14 15 15 17 18 13 10 9 7 5 6 7 8 7 4 6 5 5 7 6 6 6 7 6 6 5 5 6 8 10
5 2 1 4 6 6 5 5 4 3 2 2 3 3 5 5 3 3 5 4 3 4 6 6 5 5 4 5 7 7 7 8 8 7 6 4 3 4 7 8 12 14 11 13 17 12 6 9 13 16 16 15 14 8 6 7 11 13 16 18 17 17 18 16 13 9 6 6 8 6 6 8 8 6 6 6 6 6 5 5 4 4 5 5 5 5 7 8
3 1 2 2 2 4 3 4 4 3 2 3 2 2 5 5 2 1 2 3 4 4 5 5 5 3 4 4 5 4 4 6 7 5 3 1 2 3 7 7 9 11 10 12 16 11 6 9 13 15 17 19 15 5 2 8 11 12 14 17 18 17 18 18 15 10 9 8 6 3 7 8 8 6 4 1 1 3 3 1 2 3 4 5 6 6 6 7
5 3 1 3 3 2 2 1 2 4 4 3 3 4 5 5 2 1 2 3 5 2 3 1 2 4 6 3 4 2 2 1 2 2 3 4 5 3 4 5 6 10 12 12 13 10 7 8 12 13 14 17 16 9 6 8 9 11 13 13 16 17 17 17 12 8 8 6 1 4 5 6 5 4 4 5 4 3 2 1 2 3 4 5 6 6 6 6
5 4 4 5 5 3 2 2 4 5 5 4 4 4 4 4 3 3 4 4 4 0 4 5 6 8 7 2 2 1 6 7 4 2 6 7 4 3 0 0 1 6 12 11 9 10 8 7 9 11 10 13 15 12 10 10 10 11 11 9 11 14 15 12 8 6 6 5 3 3 4 5 0 4 4 4 4 3 2 1 1 2 4 5 5 5 6 6
4 3 5 6 4 1 2 4 4 5 5 5 4 2 2 2 3 7 5 4 4 3 5 9 10 8 5 1 2 4 8 11 10 9 11 10 7 5 3 2 2 3 9 10 8 9 9 6 6 8 9 10 12 13 14 13 11 13 13 11 11 13 12 9 7 6 7 6 5 5 5 3 3 4 2 2 2 2 2 2 2 2 3 3 4 5 6 6
6 3 3 5 3 1 2 3 3 5 4 1 1 1 1 1 4 7 4 2 1 1 6 10 10 7 4 2 4 8 14 15 16 15 14 13 12 11 9 7 7 6 6 8 8 9 10 7 6 8 9 8 11 13 14 12 11 12 11 11 13 13 11 9 7 6 6 5 5 5 2 3 4 2 0 2 3 3 3 3 3 3 4 3 4 5 6 6
Wind_Direction
5 5 4 3 359 354 348 342 336 327 314 300 286 279 276 276 278 279 279 280 284 284 286 288 294 304 306 307 310 314 316 309 282 209 209 179 162 162 165 178 185 181 168 164 174 171 161 169 177 176 179 198 215 209 199 195 198 200 265 331 42 48 18 227 222 218 212 176 174 169 183 176 137 140 136 151 139 127 121 109 103 92 85 101 124 133 142 147
3 3 3 2 0 357 352 346 341 333 321 307 292 283 276 275 277 279 280 280 284 283 285 287 294 305 304 308 314 320 327 320 283 202 175 165 167 167 166 176 183 180 169 172 183 174 166 176 180 180 188 211 216 202 196 181 197 231 301 1 41 359 32 260 254 217 211 186 172 175 182 173 143 145 152 167 147 140 128 119 123 107 104 117 127 136 144 148
360 0 0 360 360 359 356 351 345 338 328 314 299 288 279 276 275 278 282 282 285 284 285 287 295 304 303 311 316 325 331 327 15 158 169 167 167 167 166 170 178 177 167 177 183 173 170 182 184 183 198 237 226 197 210 182 193 218 236 347 305 270 238 229 244 212 184 164 170 175 175 169 163 154 154 175 154 154 149 137 144 130 126 131 135 142 148 152
357 357 357 358 358 358 358 355 349 342 333 321 306 293 283 279 276 279 282 283 286 285 286 288 295 302 304 313 318 327 324 318 111 150 173 171 163 164 166 162 167 165 153 173 180 177 174 172 182 189 212 254 250 212 231 192 183 162 198 245 212 229 226 201 203 176 167 159 169 171 166 169 169 162 160 184 164 154 153 147 151 145 143 142 144 149 153 156
354 355 355 355 355 357 357 356 352 346 338 327 313 299 289 282 279 279 281 285 288 287 289 289 295 302 304 312 317 326 313 305 124 156 173 176 167 163 165 158 156 155 158 177 184 190 188 165 178 201 224 264 277 235 242 201 201 177 200 239 238 221 277 165 156 144 151 147 165 171 166 165 163 167 173 184 154 88 56 147 152 151 152 152 152 154 158 161
352 352 352 352 352 354 355 355 354 349 343 332 319 306 295 287 283 281 282 286 287 289 291 292 296 300 306 310 317 324 307 26 119 159 170 180 177 164 165 161 157 157 163 176 179 187 189 176 185 207 253 286 292 272 318 194 209 232 209 228 265 215 179 190 151 134 138 139 156 167 163 165 173 174 175 180 125 86 17 161 154 155 157 157 156 159 163 166
348 350 349 350 350 351 353 353 353 351 347 337 325 312 300 292 286 283 284 286 289 291 293 296 296 298 306 306 316 316 289 68 127 167 168 178 182 171 164 162 163 163 170 177 176 183 186 183 198 253 298 303 321 330 356 133 194 239 286 157 55 47 146 150 137 126 124 125 138 161 168 179 190 179 171 190 144 108 113 147 153 153 156 159 161 165 168 170
344 346 347 348 347 348 349 351 351 351 349 341 330 317 304 295 288 285 284 285 289 291 295 297 294 299 302 302 316 298 223 130 150 171 169 175 179 176 168 169 173 171 179 185 182 187 188 194 218 265 284 303 327 340 14 145 185 219 287 87 97 85 100 115 119 116 113 116 134 162 178 191 199 201 206 200 168 152 139 139 152 152 155 162 167 170 170 172
340 342 344 346 345 346 346 348 349 348 348 344 334 321 308 296 288 286 284 286 289 292 297 296 296 299 295 298 302 278 175 141 168 174 173 173 174 177 177 178 178 178 187 191 191 192 194 216 226 256 293 301 308 332 350 240 183 175 127 99 111 109 107 108 108 112 110 114 138 157 176 194 198 219 235 209 178 169 158 146 152 154 158 165 170 172 173 174
337 338 340 342 344 343 342 344 346 346 346 343 336 325 311 298 290 286 284 287 287 291 295 295 298 295 294 299 278 246 134 135 165 173 178 177 175 177 183 190 183 183 191 194 199 199 206 233 250 273 283 288 295 330 351 331 65 124 123 107 113 113 110 108 107 117 110 111 137 148 157 177 186 214 223 177 172 178 172 158 156 158 162 166 169 173 176 177
334 335 336 339 341 341 341 340 342 343 343 342 337 327 314 300 291 285 283 283 283 288 292 295 297 291 292 282 263 236 129 133 148 171 181 179 182 180 183 194 189 188 194 198 207 211 223 243 278 277 272 302 305 337 35 7 79 127 126 112 113 113 112 121 121 129 122 114 138 143 147 165 184 212 197 131 159 180 176 165 165 166 164 169 171 173 177 179
332 332 333 335 338 339 339 338 339 339 339 339 335 328 316 301 290 283 279 278 280 283 287 293 292 290 292 274 259 249 180 149 136 166 182 182 187 185 185 197 196 194 197 205 214 220 236 250 264 272 292 322 311 326 45 17 143 147 149 131 129 137 133 132 136 147 148 124 149 164 166 179 192 208 192 152 161 173 174 174 175 172 167 171 173 174 178 181
331 331 331 332 334 336 336 336 336 335 335 334 333 328 315 301 286 278 275 274 277 280 286 291 290 292 289 271 254 243 220 195 153 159 181 185 186 187 192 200 200 199 207 221 223 220 235 249 258 275 295 303 315 342 336 317 173 170 206 247 153 161 154 148 150 157 161 124 165 202 176 150 182 182 168 164 170 173 176 182 182 174 170 173 176 176 179 184
331 330 330 330 332 333 334 335 334 333 331 330 330 326 314 301 284 277 273 271 273 276 284 283 288 295 278 267 262 240 215 208 201 176 178 182 187 194 200 200 198 201 211 220 215 205 221 236 256 272 278 278 306 311 264 208 188 192 207 220 205 10 132 154 161 164 166 135 178 222 353 88 149 159 159 163 172 181 183 184 182 177 174 174 178 181 181 187
332 331 330 329 330 331 331 334 334 332 328 327 328 324 313 298 283 278 269 268 271 271 279 282 287 298 278 266 261 239 211 209 215 203 184 182 186 194 201 201 197 200 201 199 195 190 209 235 256 272 277 265 272 272 239 186 192 224 232 168 46 17 113 145 173 183 176 144 186 226 340 87 122 156 172 175 175 185 188 183 181 179 180 178 179 184 186 189
333 331 330 329 330 330 330 333 335 332 328 326 326 322 312 298 282 273 266 264 264 267 273 277 277 281 286 264 240 237 217 212 216 208 194 184 185 192 195 194 195 200 199 196 205 204 215 243 261 275 279 261 251 259 253 211 186 191 301 14 31 6 97 135 174 194 178 148 187 229 285 75 108 159 177 181 184 187 186 181 182 181 183 185 183 187 189 190
334 333 331 329 329 329 329 331 335 335 331 327 324 318 309 296 280 271 266 259 257 264 262 258 277 281 268 243 228 230 208 209 211 205 196 183 186 194 186 183 190 193 194 201 212 220 222 241 255 256 250 245 259 276 254 216 165 112 349 5 43 4 7 131 163 189 186 182 195 215 250 58 104 148 173 181 192 189 185 180 180 183 187 190 190 190 192 193
334 333 332 330 329 329 327 329 334 335 334 330 322 316 308 296 285 274 262 256 250 255 261 232 198 269 240 215 212 193 188 208 202 197 194 180 180 190 186 184 185 180 187 203 204 207 211 223 243 253 234 218 229 248 243 30 355 343 348 350 8 31 356 98 129 170 185 202 214 202 223 194 138 152 168 179 191 194 191 184 180 183 189 191 193 196 196 198
333 333 333 330 329 328 326 326 330 334 335 332 328 325 317 303 291 275 252 237 214 221 272 194 187 235 263 189 195 173 185 197 185 185 187 180 174 180 188 187 182 184 194 199 189 196 208 215 229 252 237 207 193 268 304 347 336 324 327 326 330 336 84 71 101 152 178 202 217 214 227 198 165 167 174 180 188 196 196 190 187 186 188 191 197 199 199 204
330 331 331 330 329 328 324 322 324 328 326 325 337 332 312 301 275 234 214 230 233 245 274 218 206 249 307 131 162 190 189 178 175 181 183 178 171 172 183 184 183 194 206 208 189 179 204 229 228 240 239 209 4 300 297 314 311 305 302 299 310 312 97 93 111 148 182 214 206 207 234 228 175 168 176 179 182 195 199 194 193 192 192 194 199 201 201 207
325 327 329 329 329 328 323 320 319 320 309 299 333 320 303 320 296 316 270 254 254 254 259 246 232 248 251 210 150 161 165 181 183 183 182 175 171 173 178 183 188 200 210 218 211 164 195 236 235 243 267 304 289 286 289 290 282 276 287 298 294 290 90 100 121 143 178 229 182 169 233 241 208 183 175 179 185 194 198 197 197 196 196 197 200 203 203 206
321 322 326 325 327 329 324 318 316 313 283 262 312 289 281 307 289 320 324 275 266 252 249 247 239 244 245 242 238 222 220 216 187 180 181 175 180 184 177 188 203 204 200 209 223 201 210 239 242 240 255 254 251 274 276 271 274 271 276 286 286 55 106 121 142 147 173 231 156 154 235 228 200 198 184 186 198 201 198 202 202 197 198 200 201 203 204 205
317 318 321 323 326 330 324 318 318 308 256 257 289 255 256 275 286 319 308 281 277 245 234 234 228 234 238 238 238 230 230 227 193 181 181 178 189 194 182 191 208 208 198 202 220 227 224 233 256 255 233 245 247 242 257 263 263 259 263 277 291 119 181 156 159 167 180 223 29 219 256 229 191 195 197 200 205 205 203 206 205 201 202 203 203 201 204 205
315 314 316 320 322 329 327 320 318 302 262 278 273 240 247 268 308 328 287 268 278 233 223 226 221 228 228 224 225 218 216 221 206 185 182 183 189 193 191 198 206 212 207 207 218 236 240 163 107 277 206 244 256 244 250 257 252 246 256 297 313 299 280 59 137 157 174 205 222 252 253 224 190 191 201 197 195 200 203 205 205 204 205 205 206 204 205 207
312 311 313 316 318 328 329 325 321 302 302 300 275 238 239 267 312 324 269 264 261 206 211 212 214 223 213 204 206 204 207 216 214 188 183 190 189 184 193 201 206 213 211 212 217 233 240 179 162 244 257 251 255 252 246 252 269 262 83 359 324 306 279 140 145 162 191 200 192 231 250 176 158 201 203 172 176 194 195 203 206 202 204 206 207 207 207 209
309 308 310 312 315 324 330 331 311 307 314 308 272 227 228 272 309 261 239 270 243 167 173 181 193 204 196 195 184 182 206 214 210 195 184 194 196 191 195 193 204 226 216 212 218 233 238 211 209 245 265 259 250 249 238 245 271 269 56 3 320 297 229 168 173 198 225 143 152 219 260 102 143 199 197 173 187 198 189 201 208 200 201 204 206 207 207 209
306 306 305 307 311 318 322 315 305 309 311 285 246 217 231 276 287 219 241 258 219 136 133 161 181 182 184 184 171 172 193 170 179 190 188 192 195 198 207 188 192 229 217 201 217 221 217 215 216 235 252 250 241 239 209 224 266 343 29 347 315 276 194 175 197 225 245 101 153 198 248 283 215 163 170 185 201 204 196 204 209 203 203 204 205 205 205 206
303 302 301 301 304 310 312 309 313 313 282 254 231 221 244 271 233 221 258 265 170 120 118 145 168 166 160 172 175 183 154 138 167 185 186 193 192 195 217 209 201 210 196 199 216 187 194 217 220 224 235 232 230 234 122 214 270 18 17 331 308 219 190 181 207 224 203 218 199 170 182 257 236 140 166 192 202 210 208 207 208 206 205 204 205 204 202 203
299 298 295 293 296 298 300 305 313 303 266 241 225 230 242 226 195 220 258 276 153 144 128 140 157 165 157 169 187 198 195 179 189 166 170 190 196 199 227 223 216 210 197 213 230 182 164 220 221 214 225 224 219 193 91 259 297 40 359 283 155 167 176 188 217 193 191 245 237 164 180 248 241 163 178 190 206 219 212 207 206 204 205 205 204 203 201 199
294 294 289 286 290 292 295 303 307 294 253 226 225 224 210 189 208 233 237 243 140 115 115 151 159 165 168 170 189 201 200 199 152 150 164 181 191 200 232 229 222 218 202 213 232 219 132 145 184 210 228 244 241 123 134 265 297 341 229 194 147 153 161 181 206 186 219 236 218 156 183 253 275 172 159 159 194 209 200 200 201 200 202 203 203 202 199 197
291 288 283 281 284 287 293 301 305 293 220 208 200 170 182 195 230 251 225 146 217 140 140 165 156 160 179 182 185 191 196 190 153 161 171 173 185 197 207 208 211 218 213 211 224 224 199 195 200 210 223 242 251 220 188 207 214 222 230 209 176 158 166 178 167 198 238 227 136 144 190 234 249 193 126 118 154 180 185 192 195 199 199 198 201 201 198 196
290 282 274 276 277 278 282 283 280 255 200 193 178 174 200 214 225 241 211 136 222 173 144 154 145 161 188 195 190 184 189 187 168 175 179 175 185 193 198 200 191 202 215 209 210 216 217 222 221 216 214 219 234 223 183 187 210 221 232 224 217 199 195 211 198 207 234 171 112 149 210 236 249 230 189 189 191 195 207 198 190 198 199 196 196 198 196 195
292 279 268 269 273 273 274 269 251 222 203 194 190 199 223 236 224 230 226 205 116 68 83 151 162 185 195 200 194 184 190 185 174 185 187 187 193 193 201 207 198 203 217 208 205 208 212 218 219 221 214 209 225 231 201 188 193 212 227 223 223 219 215 221 217 225 236 147 118 160 222 249 251 237 219 214 199 203 219 216 204 203 203 198 195 195 194 192
293 278 269 268 270 271 269 258 232 211 204 198 202 208 219 233 228 212 233 217 64 37 202 219 257 224 200 206 193 180 192 185 173 186 188 190 202 198 200 207 204 210 222 211 207 207 213 214 206 210 205 194 207 226 238 238 196 210 230 240 241 239 233 231 221 231 236 158 135 164 208 252 246 130 120 139 152 192 217 212 209 210 206 201 196 194 191 191
295 279 274 273 271 270 263 240 210 197 193 192 203 210 213 227 226 212 225 194 65 264 245 274 261 216 195 204 194 185 198 195 178 190 195 194 206 202 196 200 201 208 216 211 203 204 223 229 187 191 195 189 200 215 232 256 239 207 214 242 251 249 241 241 251 265 276 246 188 185 223 263 264 141 164 175 179 199 210 203 201 203 196 194 196 193 189 189
299 286 277 273 267 262 252 220 197 186 182 188 205 212 217 231 237 200 80 50 20 331 308 261 220 213 196 188 189 189 201 211 190 191 200 201 209 207 200 195 193 204 214 209 196 195 221 222 162 167 188 197 205 203 203 228 240 182 202 225 233 286 269 252 234 236 259 256 221 188 240 253 232 219 200 197 215 211 209 209 198 191 186 185 190 190 187 188
313 299 268 260 262 252 234 205 187 180 183 198 216 218 224 233 263 23 41 357 319 323 307 261 185 233 210 182 187 186 190 202 190 191 201 198 207 208 206 198 188 201 214 219 222 205 229 222 166 172 197 190 189 188 191 217 235 207 220 207 157 207 267 261 246 214 226 248 225 196 249 257 238 228 171 180 219 203 194 204 190 179 180 182 186 187 187 189
327 313 240 259 265 241 214 191 176 176 186 209 224 228 238 218 183 333 332 318 304 290 289 275 194 276 226 192 189 178 180 189 183 193 203 191 194 198 204 203 187 197 209 219 231 203 220 229 176 187 201 165 156 199 199 204 222 246 289 234 191 227 222 215 236 242 236 247 241 217 239 257 252 250 212 218 237 202 171 184 188 181 180 184 186 185 186 189
329 243 199 288 263 207 186 172 166 176 193 215 225 223 225 228 236 263 267 281 282 266 272 273 240 250 252 232 190 170 180 191 183 192 204 192 179 181 196 204 193 198 206 213 226 203 207 237 196 187 191 160 162 206 216 197 199 233 273 243 234 262 258 222 224 244 251 253 255 237 227 250 251 253 264 263 269 262 182 174 191 192 183 184 184 182 185 188
317 206 131 66 128 147 154 157 161 183 204 217 232 219 180 224 241 243 242 248 256 249 257 275 245 233 247 252 228 181 190 201 195 196 201 187 173 175 195 204 199 200 204 210 221 218 207 230 220 177 169 177 188 201 219 219 197 201 223 224 220 228 262 259 230 236 255 257 260 255 247 258 324 14 286 288 354 301 230 178 192 196 187 184 181 182 183 185
282 231 126 113 120 129 140 153 170 198 211 216 243 241 205 236 255 247 234 234 246 250 258 278 271 263 277 257 233 199 198 209 206 204 203 191 195 206 194 198 206 201 198 207 215 215 206 213 223 194 168 203 214 200 213 235 236 220 217 217 220 215 220 236 226 219 238 255 264 273 271 282 60 66 311 296 90 33 287 194 189 191 189 181 177 181 183 185
265 247 138 134 128 130 147 179 190 200 218 223 242 244 221 247 257 256 241 225 236 244 243 260 265 262 269 262 253 242 216 217 211 209 211 201 209 217 185 189 203 197 191 206 208 206 211 220 226 224 212 211 201 166 170 218 271 265 250 234 230 220 217 231 234 215 213 238 259 274 276 285 84 90 217 189 182 218 238 221 188 185 188 181 178 181 184 188
322 32 140 149 140 144 184 212 183 200 228 219 232 240 220 233 243 243 237 223 227 233 226 241 254 248 246 248 252 244 221 220 215 213 217 211 212 218 197 189 197 194 192 206 201 193 201 220 223 230 236 216 180 133 127 160 217 244 241 238 242 234 225 236 253 238 213 221 235 251 260 247 120 127 170 188 197 208 216 210 192 187 188 186 184 181 181 185
333 53 152 164 150 163 232 231 185 201 208 190 215 221 210 230 245 239 235 226 218 223 229 239 244 239 237 246 255 249 231 222 213 210 219 221 206 207 205 193 192 197 197 200 191 175 183 214 216 216 224 217 201 185 179 182 207 235 231 221 227 235 236 243 258 251 233 232 236 250 265 264 120 136 181 203 207 212 208 202 202 198 192 190 187 181 184 186
286 173 174 184 165 196 264 293 233 199 180 189 215 211 204 216 226 236 254 251 234 235 245 244 239 241 245 250 252 250 250 248 224 208 218 217 181 146 204 200 195 203 207 201 186 170 187 211 205 213 219 211 212 212 207 207 210 226 232 218 213 222 228 230 231 234 234 224 223 247 274 283 132 156 199 213 214 221 214 205 204 202 198 193 186 184 198 204
276 206 165 178 190 229 251 276 282 222 172 195 206 196 216 213 194 219 250 250 232 236 250 252 250 248 240 247 252 242 240 237 225 220 227 214 178 131 180 200 203 209 209 200 189 182 208 213 203 222 233 229 230 222 210 223 222 213 213 209 207 213 217 221 228 233 233 219 220 241 269 272 209 182 203 224 230 234 227 214 206 197 195 190 176 177 198 212
289 275 138 177 193 223 220 198 224 220 162 225 213 182 223 225 195 195 213 223 223 236 252 243 237 247 243 256 262 243 226 218 215 229 240 227 199 155 162 188 210 211 202 195 195 199 226 219 211 223 233 244 255 241 186 213 234 225 212 206 206 208 210 219 229 230 219 237 250 230 224 257 257 234 235 236 236 243 240 229 211 184 180 180 171 174 188 201
310 358 6 326 219 217 213 187 208 228 212 234 245 229 229 231 237 192 199 234 236 249 260 208 187 276 319 293 267 252 217 208 203 213 234 255 297 212 169 170 196 198 195 199 201 205 228 226 218 221 228 237 250 267 203 218 235 243 227 209 200 199 204 214 224 224 217 238 264 187 181 231 260 267 272 23 23 296 292 224 179 163 171 173 168 174 181 183
346 0 24 334 302 290 330 42 228 245 231 229 244 237 238 249 262 13 354 267 222 225 304 217 144 345 339 300 261 279 40 297 193 119 23 350 328 287 189 170 177 185 196 205 200 202 224 229 220 221 228 232 231 233 235 226 231 247 239 214 198 198 204 212 216 213 214 229 218 129 178 234 269 315 352 38 29 341 2 83 186 188 186 181 176 177 173 168
5 355 355 321 292 283 294 243 230 239 219 207 220 218 242 265 296 354 332 276 242 110 15 2 3 352 346 333 263 90 48 11 337 336 335 328 338 359 352 185 143 176 194 204 193 190 209 218 210 216 232 231 222 218 223 225 231 237 230 210 201 199 200 207 204 187 199 213 165 150 221 239 217 33 21 26 18 10 47 73 198 184 185 183 177 169 158 153
13 346 341 316 283 219 247 226 225 243 219 203 213 205 223 248 341 340 304 255 277 332 12 1 350 341 333 356 83 42 10 340 312 302 303 296 297 320 324 315 319 206 194 201 193 185 200 208 195 208 230 227 213 212 216 221 234 237 223 203 197 199 198 200 193 187 204 211 194 212 250 244 89 59 42 51 47 52 58 60 96 119 149 164 156 149 147 145
22 348 332 312 279 203 243 229 215 233 228 186 32 19 318 303 357 333 295 187 177 351 13 356 339 329 330 66 56 357 331 312 299 299 294 280 273 276 275 271 273 263 216 204 200 190 200 209 195 202 223 218 201 206 211 211 224 234 222 200 199 204 202 190 178 182 203 218 216 231 272 54 70 57 39 88 80 78 67 58 60 78 105 127 134 136 136 134
Height
1516 1514 1512 1510 1508 1507 1505 1503 1502 1501 1500 1500 1499 1499 1499 1499 1499 1499 1499 1498 1498 1497 1497 1496 1496 1496 1495 1495 1494 1494 1493 1492 1492 1491 1491 1492 1494 1495 1496 1496 1497 1498 1499 1501 1503 1504 1506 1507 1508 1509 1510 1510 1509 1508 1508 1508 1508 1507 1507 1508 1509 1511 1513 1510 1507 1507 1506 1505 1503 1504 1505 1506 1507 1508 1508 1508 1509 1509 1510 1513 1514 1515 1515 1516 1517 1518 1519 1522
1516 1514 1512 1510 1508 1506 1505 1503 1502 1500 1499 1499 1498 1498 1498 1498 1498 1498 1498 1498 1497 1497 1496 1495 1495 1495 1495 1494 1493 1493 1492 1492 1491 1490 1490 1491 1493 1494 1495 1496 1497 1497 1499 1500 1501 1503 1504 1506 1506 1507 1509 1507 1506 1507 1506 1507 1507 1506 1506 1509 1510 1509 1507 1504 1503 1503 1503 1503 1502 1503 1504 1505 1507 1507 1507 1507 1508 1509 1511 1513 1514 1515 1516 1517 1518 1519 1521 1523
1515 1514 1512 1510 1508 1506 1504 1503 1501 1500 1499 1498 1498 1497 1497 1497 1497 1497 1497 1497 1496 1496 1496 1495 1495 1495 1494 1493 1492 1492 1491 1491 1490 1490 1490 1491 1492 1493 1495 1497 1497 1498 1498 1500 1501 1503 1505 1505 1506 1506 1507 1506 1504 1505 1505 1506 1506 1505 1507 1512 1511 1508 1506 1504 1502 1501 1501 1501 1501 1503 1504 1505 1506 1507 1508 1507 1507 1508 1510 1512 1514 1515 1517 1518 1519 1520 1522 1524
1515 1513 1512 1510 1508 1506 1504 1502 1501 1499 1498 1497 1497 1496 1496 1496 1496 1496 1496 1496 1496 1495 1495 1494 1494 1494 1494 1493 1492 1491 1490 1490 1489 1490 1490 1490 1491 1493 1495 1497 1498 1499 1499 1501 1502 1504 1506 1506 1507 1507 1507 1504 1502 1503 1503 1504 1505 1504 1507 1509 1508 1505 1505 1503 1500 1499 1499 1499 1501 1502 1504 1506 1506 1507 1508 1507 1509 1510 1509 1511 1513 1514 1516 1517 1519 1520 1522 1524
1515 1513 1511 1510 1508 1506 1504 1502 1500 1499 1497 1496 1496 1496 1496 1496 1496 1496 1496 1496 1495 1495 1495 1494 1493 1494 1493 1492 1492 1491 1490 1491 1490 1489 1490 1491 1492 1493 1495 1497 1498 1499 1500 1502 1503 1504 1505 1505 1506 1506 1506 1503 1500 1501 1500 1500 1502 1503 1503 1502 1501 1500 1502 1500 1498 1498 1498 1499 1501 1502 1504 1506 1506 1507 1508 1508 1511 1513 1511 1512 1514 1515 1516 1517 1518 1520 1523 1525
1514 1513 1511 1509 1507 1506 1504 1502 1500 1498 1497 1496 1495 1495 1495 1495 1495 1495 1495 1495 1494 1494 1494 1493 1493 1493 1493 1492 1491 1490 1491 1492 1491 1490 1490 1491 1492 1493 1494 1496 1498 1499 1501 1503 1503 1504 1504 1504 1505 1504 1503 1500 1498 1498 1496 1497 1499 1501 1500 1498 1497 1497 1500 1501 1498 1498 1499 1499 1500 1502 1504 1506 1506 1507 1508 1509 1511 1513 1512 1513 1514 1515 1517 1517 1519 1521 1523 1525
1514 1512 1510 1509 1507 1505 1503 1502 1500 1498 1496 1495 1494 1494 1494 1494 1494 1494 1494 1494 1494 1494 1493 1493 1493 1492 1492 1492 1491 1490 1490 1490 1490 1490 1491 1491 1493 1494 1495 1496 1497 1499 1501 1503 1503 1504 1504 1504 1504 1502 1502 1501 1496 1493 1494 1495 1497 1500 1500 1495 1496 1497 1498 1499 1498 1498 1499 1499 1501 1503 1504 1505 1506 1508 1509 1509 1510 1512 1513 1513 1515 1516 1517 1518 1519 1521 1523 1525
1513 1511 1510 1508 1506 1505 1503 1501 1499 1498 1496 1495 1494 1493 1493 1493 1493 1493 1493 1493 1493 1493 1493 1493 1492 1492 1492 1491 1491 1490 1489 1490 1490 1490 1491 1492 1493 1494 1495 1496 1497 1499 1501 1502 1503 1503 1504 1504 1504 1502 1502 1501 1496 1492 1493 1495 1496 1497 1497 1494 1495 1497 1497 1498 1498 1498 1499 1501 1502 1503 1504 1505 1506 1508 1508 1508 1510 1512 1512 1514 1515 1515 1517 1518 1520 1521 1523 1525
1512 1511 1509 1507 1506 1504 1502 1501 1499 1497 1495 1494 1493 1493 1492 1492 1492 1492 1492 1492 1492 1492 1492 1492 1492 1492 1491 1491 1491 1489 1488 1489 1489 1489 1491 1492 1493 1494 1495 1495 1496 1498 1500 1501 1502 1503 1504 1503 1502 1502 1502 1499 1496 1493 1491 1494 1496 1494 1494 1495 1496 1497 1498 1498 1498 1498 1500 1501 1502 1503 1504 1505 1506 1507 1508 1507 1509 1511 1512 1514 1514 1515 1516 1517 1519 1521 1523 1525
1511 1510 1508 1506 1505 1503 1501 1500 1498 1496 1495 1493 1492 1492 1491 1491 1491 1491 1491 1491 1491 1491 1491 1492 1491 1491 1491 1491 1491 1488 1487 1488 1489 1489 1490 1492 1493 1493 1494 1495 1496 1498 1499 1501 1501 1503 1504 1503 1502 1502 1502 1498 1495 1493 1490 1492 1494 1492 1493 1495 1496 1497 1498 1498 1499 1499 1500 1501 1502 1503 1504 1504 1505 1507 1508 1506 1508 1510 1511 1513 1514 1515 1516 1517 1519 1521 1523 1525
1510 1509 1507 1506 1504 1502 1501 1499 1497 1496 1494 1493 1492 1491 1490 1490 1490 1490 1490 1490 1490 1490 1491 1491 1491 1491 1491 1491 1489 1487 1487 1488 1488 1489 1490 1491 1492 1493 1494 1495 1496 1498 1500 1500 1501 1502 1503 1502 1502 1501 1500 1496 1493 1491 1490 1492 1492 1492 1493 1495 1496 1497 1499 1499 1499 1500 1500 1501 1502 1502 1503 1504 1504 1506 1506 1505 1507 1509 1510 1512 1514 1515 1517 1518 1519 1521 1523 1525
1509 1508 1506 1505 1503 1501 1500 1498 1497 1495 1493 1492 1491 1490 1490 1489 1489 1489 1489 1490 1490 1490 1490 1490 1490 1490 1490 1490 1489 1487 1487 1488 1488 1489 1490 1491 1492 1493 1494 1496 1497 1499 1500 1500 1501 1501 1501 1501 1501 1500 1497 1495 1492 1491 1493 1492 1491 1492 1491 1496 1498 1497 1499 1499 1499 1500 1500 1502 1502 1501 1506 1506 1505 1504 1503 1505 1507 1508 1510 1512 1513 1515 1517 1518 1520 1521 1523 1525
1508 1506 1505 1504 1502 1500 1499 1497 1496 1494 1492 1491 1490 1489 1489 1488 1488 1489 1489 1489 1489 1489 1489 1489 1489 1490 1490 1489 1487 1486 1487 1487 1488 1489 1490 1491 1493 1494 1495 1497 1498 1500 1501 1501 1500 1500 1501 1501 1500 1499 1497 1495 1492 1492 1493 1491 1491 1492 1489 1492 1496 1498 1503 1499 1497 1500 1500 1502 1501 1502 1511 1510 1502 1501 1502 1504 1507 1507 1509 1511 1512 1514 1516 1518 1520 1521 1522 1524
1506 1505 1504 1502 1501 1499 1498 1496 1495 1493 1492 1490 1489 1488 1487 1487 1488 1487 1488 1488 1488 1488 1489 1489 1489 1489 1489 1487 1485 1485 1485 1486 1487 1488 1489 1491 1492 1494 1495 1496 1498 1499 1500 1500 1500 1500 1499 1500 1500 1498 1496 1495 1492 1491 1491 1489 1489 1490 1490 1491 1492 1500 1506 1499 1496 1499 1501 1503 1500 1503 1513 1510 1501 1499 1501 1504 1506 1507 1508 1509 1511 1513 1515 1517 1519 1521 1522 1523
1505 1504 1502 1501 1500 1498 1497 1495 1494 1492 1491 1489 1488 1487 1486 1486 1486 1486 1487 1487 1487 1488 1488 1488 1488 1488 1488 1486 1484 1483 1484 1485 1486 1487 1489 1490 1491 1493 1494 1495 1497 1498 1499 1499 1499 1499 1499 1499 1499 1496 1494 1493 1492 1491 1489 1489 1488 1487 1493 1497 1492 1496 1503 1499 1496 1497 1500 1503 1499 1504 1511 1508 1502 1500 1501 1503 1505 1506 1507 1508 1510 1511 1514 1516 1518 1520 1521 1522
1504 1502 1501 1500 1498 1497 1495 1494 1493 1491 1489 1488 1487 1486 1486 1485 1485 1486 1486 1486 1487 1487 1487 1488 1488 1489 1488 1484 1483 1482 1483 1484 1484 1486 1488 1489 1491 1492 1493 1494 1496 1497 1497 1498 1498 1498 1498 1498 1497 1494 1492 1491 1489 1489 1490 1493 1492 1487 1492 1498 1495 1495 1498 1500 1498 1494 1496 1501 1500 1504 1508 1507 1503 1500 1500 1503 1504 1505 1506 1507 1509 1511 1513 1514 1517 1518 1520 1522
1502 1501 1500 1498 1497 1496 1494 1493 1491 1490 1488 1487 1486 1485 1485 1485 1484 1485 1485 1485 1486 1486 1487 1487 1487 1489 1486 1481 1482 1482 1482 1483 1483 1485 1486 1488 1491 1492 1493 1494 1495 1496 1497 1497 1498 1497 1497 1497 1496 1493 1490 1488 1486 1488 1498 1504 1500 1492 1490 1493 1494 1494 1495 1499 1502 1496 1494 1499 1501 1502 1505 1505 1502 1499 1500 1502 1503 1504 1505 1506 1508 1510 1512 1513 1515 1517 1518 1520
1501 1500 1498 1497 1496 1494 1493 1492 1490 1489 1487 1486 1485 1484 1484 1484 1483 1483 1483 1484 1485 1486 1486 1485 1487 1489 1484 1479 1480 1481 1481 1482 1482 1484 1485 1486 1489 1491 1493 1493 1494 1496 1496 1496 1496 1496 1496 1494 1492 1492 1489 1488 1488 1490 1501 1505 1499 1496 1494 1494 1493 1492 1493 1496 1499 1496 1494 1498 1501 1502 1504 1502 1499 1498 1499 1501 1502 1503 1503 1505 1507 1508 1511 1512 1514 1515 1517 1518
1500 1498 1497 1496 1494 1493 1492 1491 1490 1488 1487 1486 1485 1484 1483 1483 1483 1482 1482 1483 1483 1483 1482 1481 1483 1484 1480 1477 1479 1480 1480 1480 1481 1483 1484 1485 1488 1491 1492 1493 1494 1494 1494 1494 1493 1492 1493 1493 1494 1497 1493 1490 1489 1489 1494 1495 1493 1495 1494 1494 1495 1493 1492 1490 1492 1490 1490 1497 1500 1500 1502 1500 1498 1498 1497 1499 1500 1502 1503 1503 1506 1507 1509 1511 1512 1513 1515 1517
1498 1497 1496 1494 1493 1492 1490 1489 1488 1487 1486 1485 1485 1484 1483 1482 1480 1480 1481 1481 1480 1478 1477 1478 1478 1477 1477 1477 1479 1479 1479 1480 1481 1482 1483 1484 1487 1489 1490 1492 1492 1492 1491 1491 1491 1489 1491 1496 1499 1497 1490 1486 1487 1487 1488 1488 1489 1492 1492 1492 1492 1491 1491 1489 1490 1488 1486 1495 1498 1495 1498 1496 1495 1495 1494 1496 1499 1500 1501 1502 1504 1506 1507 1509 1511 1512 1513 1515
1497 1496 1494 1493 1492 1491 1489 1488 1487 1486 1485 1485 1484 1484 1483 1482 1480 1479 1480 1477 1475 1475 1475 1476 1477 1476 1476 1477 1478 1478 1479 1480 1480 1482 1483 1484 1486 1487 1488 1488 1489 1491 1488 1486 1487 1487 1491 1499 1497 1489 1483 1483 1485 1485 1486 1488 1489 1491 1491 1491 1489 1488 1489 1488 1489 1488 1486 1494 1495 1492 1497 1496 1493 1493 1492 1494 1497 1497 1498 1500 1502 1503 1505 1508 1509 1510 1512 1514
1495 1494 1492 1492 1490 1489 1488 1486 1486 1485 1484 1484 1484 1483 1483 1483 1481 1481 1480 1476 1472 1473 1473 1473 1475 1474 1474 1476 1477 1478 1479 1479 1479 1481 1481 1483 1485 1484 1484 1485 1487 1488 1485 1485 1489 1491 1496 1499 1490 1482 1480 1483 1485 1484 1487 1489 1489 1490 1489 1490 1490 1486 1487 1490 1489 1487 1488 1494 1495 1493 1497 1495 1489 1489 1489 1491 1493 1494 1496 1497 1499 1501 1503 1505 1507 1509 1510 1512
1494 1492 1491 1490 1488 1488 1486 1485 1484 1483 1483 1483 1482 1483 1482 1482 1481 1481 1481 1477 1471 1469 1469 1470 1471 1471 1472 1474 1475 1476 1478 1477 1476 1478 1479 1481 1482 1481 1482 1483 1484 1484 1483 1487 1491 1494 1498 1494 1484 1479 1480 1484 1486 1486 1487 1488 1487 1487 1486 1489 1490 1485 1487 1495 1494 1490 1488 1490 1494 1495 1496 1492 1488 1489 1489 1489 1491 1492 1494 1495 1496 1499 1501 1502 1504 1506 1508 1509
1491 1490 1489 1488 1487 1487 1485 1483 1483 1482 1482 1482 1481 1482 1481 1481 1481 1480 1480 1475 1468 1465 1465 1467 1467 1469 1470 1471 1472 1474 1476 1475 1474 1475 1477 1479 1479 1479 1480 1479 1482 1484 1483 1484 1487 1490 1490 1484 1480 1480 1482 1485 1488 1487 1486 1489 1488 1482 1482 1487 1488 1484 1485 1490 1492 1491 1491 1491 1491 1494 1499 1493 1487 1492 1491 1487 1489 1491 1493 1494 1495 1497 1498 1501 1502 1503 1505 1506
1489 1489 1487 1486 1485 1485 1484 1483 1481 1481 1481 1480 1480 1480 1480 1481 1480 1480 1479 1474 1467 1462 1462 1464 1465 1465 1466 1468 1470 1471 1473 1474 1473 1474 1475 1476 1477 1478 1478 1477 1480 1484 1483 1482 1485 1488 1484 1478 1480 1484 1484 1484 1488 1488 1485 1488 1489 1482 1481 1485 1485 1484 1484 1486 1490 1492 1496 1499 1491 1492 1506 1501 1487 1491 1491 1486 1489 1491 1491 1492 1493 1495 1497 1499 1500 1501 1503 1504
1487 1487 1485 1484 1483 1483 1483 1482 1480 1481 1480 1479 1479 1479 1480 1480 1479 1480 1479 1474 1467 1459 1459 1462 1462 1462 1463 1465 1467 1471 1474 1471 1469 1473 1474 1475 1476 1475 1477 1477 1477 1480 1478 1478 1483 1485 1480 1476 1479 1484 1486 1484 1487 1488 1482 1483 1489 1487 1483 1481 1481 1482 1483 1487 1490 1490 1496 1501 1492 1489 1504 1506 1493 1490 1487 1485 1489 1489 1489 1490 1490 1492 1495 1496 1497 1499 1500 1502
1485 1484 1484 1483 1481 1481 1481 1480 1481 1480 1479 1479 1478 1478 1480 1479 1479 1480 1478 1477 1468 1456 1457 1461 1461 1460 1460 1462 1464 1469 1474 1468 1467 1471 1471 1474 1475 1475 1478 1477 1477 1479 1473 1477 1488 1484 1478 1481 1483 1484 1485 1486 1488 1487 1479 1479 1488 1488 1480 1479 1480 1481 1483 1486 1487 1488 1488 1492 1493 1488 1495 1504 1500 1492 1484 1483 1488 1489 1488 1489 1487 1488 1491 1492 1494 1495 1497 1499
1483 1482 1481 1481 1480 1480 1479 1479 1479 1478 1478 1478 1476 1478 1479 1478 1480 1478 1480 1483 1468 1453 1455 1458 1459 1460 1459 1462 1462 1463 1465 1462 1465 1469 1469 1472 1474 1474 1476 1473 1475 1478 1471 1480 1493 1481 1474 1481 1483 1482 1487 1488 1486 1480 1475 1478 1485 1484 1478 1478 1479 1480 1482 1482 1483 1486 1485 1491 1500 1493 1492 1505 1504 1492 1486 1484 1487 1490 1488 1486 1484 1484 1487 1489 1490 1492 1494 1496
1480 1480 1479 1479 1478 1478 1477 1477 1477 1476 1476 1476 1476 1478 1476 1478 1480 1475 1480 1482 1462 1450 1455 1456 1458 1460 1459 1461 1461 1459 1460 1460 1462 1464 1467 1472 1472 1472 1474 1470 1470 1474 1472 1478 1483 1476 1473 1476 1475 1477 1484 1484 1478 1474 1474 1478 1482 1479 1477 1478 1478 1478 1479 1480 1481 1485 1489 1498 1501 1492 1491 1503 1501 1489 1486 1488 1489 1487 1483 1479 1479 1480 1483 1485 1487 1489 1491 1493
1478 1477 1477 1476 1476 1476 1476 1475 1475 1475 1474 1475 1476 1476 1476 1479 1478 1478 1486 1477 1455 1452 1455 1454 1456 1458 1458 1460 1461 1459 1458 1459 1460 1462 1466 1469 1470 1471 1471 1470 1469 1471 1474 1475 1476 1473 1472 1474 1473 1474 1478 1476 1473 1474 1474 1477 1478 1477 1477 1479 1480 1480 1480 1482 1482 1484 1497 1504 1495 1487 1487 1497 1502 1488 1479 1483 1482 1476 1474 1474 1474 1475 1478 1482 1484 1486 1488 1490
1475 1475 1474 1473 1474 1474 1474 1474 1474 1473 1474 1474 1475 1475 1477 1476 1474 1481 1484 1464 1452 1455 1454 1454 1455 1454 1456 1459 1460 1459 1458 1458 1459 1462 1466 1466 1470 1471 1471 1474 1474 1475 1479 1479 1477 1474 1473 1476 1475 1472 1473 1472 1474 1476 1475 1474 1475 1477 1479 1480 1486 1489 1486 1488 1489 1491 1505 1506 1492 1484 1483 1492 1503 1490 1473 1473 1472 1467 1469 1470 1471 1471 1474 1478 1481 1484 1486 1488
1472 1472 1471 1471 1471 1471 1472 1472 1472 1473 1473 1473 1475 1476 1476 1477 1477 1477 1468 1454 1457 1458 1451 1453 1454 1452 1455 1456 1456 1457 1458 1458 1457 1459 1462 1464 1468 1469 1470 1472 1474 1481 1486 1482 1479 1477 1475 1475 1471 1470 1471 1471 1476 1479 1477 1476 1476 1478 1480 1483 1493 1499 1499 1503 1501 1497 1502 1500 1489 1484 1486 1492 1494 1479 1468 1469 1468 1466 1465 1465 1466 1467 1470 1474 1478 1481 1484 1486
1470 1469 1468 1469 1468 1468 1469 1470 1469 1472 1472 1473 1475 1473 1473 1480 1478 1466 1456 1454 1458 1454 1449 1453 1452 1451 1455 1456 1455 1455 1455 1458 1456 1457 1458 1460 1465 1466 1465 1464 1464 1474 1480 1477 1479 1481 1479 1474 1468 1471 1471 1468 1473 1479 1481 1479 1478 1480 1480 1484 1493 1499 1508 1514 1507 1501 1501 1496 1487 1483 1489 1495 1488 1471 1462 1462 1462 1462 1462 1463 1466 1467 1468 1471 1475 1478 1482 1484
1467 1466 1466 1466 1465 1465 1466 1467 1467 1469 1471 1473 1474 1472 1476 1481 1470 1457 1456 1454 1452 1451 1450 1452 1451 1452 1454 1454 1452 1451 1455 1457 1454 1455 1458 1459 1465 1465 1464 1462 1460 1465 1469 1470 1474 1477 1483 1480 1469 1469 1469 1465 1469 1471 1470 1468 1472 1474 1469 1473 1483 1485 1497 1507 1503 1502 1501 1495 1491 1490 1493 1493 1485 1472 1461 1457 1459 1460 1462 1463 1466 1468 1468 1470 1472 1475 1479 1482
1464 1463 1463 1463 1463 1463 1462 1464 1465 1467 1470 1472 1471 1471 1476 1474 1460 1454 1456 1451 1450 1452 1450 1448 1450 1453 1454 1451 1448 1446 1452 1456 1453 1455 1458 1459 1462 1462 1461 1461 1460 1461 1465 1471 1471 1469 1479 1476 1458 1456 1459 1458 1464 1463 1458 1465 1474 1469 1463 1473 1481 1473 1476 1488 1491 1489 1490 1495 1495 1493 1489 1477 1468 1463 1456 1456 1459 1458 1461 1462 1464 1467 1467 1468 1471 1472 1476 1479
1462 1461 1461 1460 1460 1460 1460 1462 1463 1465 1468 1468 1469 1470 1466 1460 1453 1453 1453 1451 1453 1454 1452 1450 1449 1452 1453 1451 1450 1447 1448 1451 1452 1456 1457 1456 1457 1456 1455 1456 1456 1458 1461 1466 1467 1467 1477 1472 1453 1455 1458 1454 1457 1457 1455 1466 1473 1469 1470 1477 1471 1460 1464 1481 1489 1484 1488 1500 1493 1484 1483 1470 1463 1463 1454 1456 1461 1458 1459 1460 1460 1464 1465 1467 1469 1470 1473 1477
1460 1459 1459 1458 1458 1458 1458 1460 1461 1465 1467 1465 1466 1464 1456 1451 1451 1452 1452 1453 1454 1453 1454 1454 1449 1450 1450 1449 1451 1450 1448 1450 1452 1455 1456 1456 1455 1452 1451 1451 1451 1454 1454 1457 1461 1461 1469 1469 1454 1456 1463 1455 1452 1456 1455 1457 1462 1469 1475 1467 1458 1461 1466 1475 1489 1492 1495 1501 1489 1480 1484 1477 1475 1475 1460 1458 1464 1460 1458 1458 1457 1461 1463 1465 1467 1468 1472 1475
1458 1458 1457 1457 1456 1455 1457 1458 1460 1463 1465 1464 1463 1458 1454 1453 1452 1452 1453 1454 1454 1454 1456 1455 1449 1447 1447 1447 1446 1445 1448 1452 1452 1453 1455 1455 1453 1447 1448 1451 1449 1450 1450 1453 1459 1457 1461 1469 1458 1451 1458 1456 1453 1459 1464 1459 1456 1462 1464 1456 1460 1477 1479 1477 1488 1495 1497 1501 1491 1482 1481 1477 1476 1473 1462 1461 1461 1458 1458 1458 1458 1459 1460 1462 1465 1467 1470 1473
1457 1456 1456 1455 1454 1454 1455 1457 1460 1462 1463 1462 1461 1457 1454 1453 1452 1452 1454 1454 1454 1455 1455 1452 1449 1448 1446 1445 1442 1441 1446 1449 1449 1452 1453 1453 1452 1445 1443 1448 1449 1449 1449 1451 1457 1456 1459 1470 1466 1450 1449 1454 1456 1462 1469 1466 1459 1459 1461 1458 1460 1470 1473 1474 1478 1481 1488 1497 1493 1486 1485 1479 1468 1460 1457 1458 1455 1455 1458 1459 1458 1458 1458 1460 1462 1465 1468 1471
1456 1455 1455 1454 1453 1453 1454 1457 1460 1461 1460 1458 1456 1453 1452 1453 1451 1451 1453 1453 1452 1453 1453 1450 1449 1450 1447 1444 1442 1441 1443 1444 1444 1448 1449 1448 1450 1447 1442 1443 1446 1447 1447 1449 1453 1454 1457 1468 1470 1456 1450 1457 1461 1460 1460 1459 1458 1464 1468 1468 1466 1466 1466 1470 1471 1469 1476 1489 1491 1491 1492 1479 1459 1450 1453 1454 1453 1454 1455 1456 1457 1457 1456 1459 1461 1464 1467 1469
1455 1453 1454 1455 1454 1453 1456 1458 1458 1457 1456 1454 1453 1452 1452 1453 1451 1450 1451 1452 1452 1450 1450 1449 1449 1449 1447 1446 1444 1441 1442 1443 1441 1444 1445 1443 1447 1448 1441 1438 1441 1443 1447 1451 1453 1453 1457 1464 1467 1462 1459 1461 1457 1447 1444 1447 1449 1455 1461 1462 1463 1464 1468 1479 1481 1471 1469 1478 1481 1486 1492 1477 1455 1449 1452 1452 1453 1453 1452 1454 1456 1455 1456 1458 1460 1463 1466 1467
1454 1452 1453 1455 1454 1455 1457 1456 1454 1453 1453 1452 1452 1452 1452 1453 1451 1450 1449 1450 1451 1449 1448 1449 1449 1448 1447 1446 1444 1442 1443 1443 1441 1441 1442 1440 1441 1441 1436 1435 1438 1439 1444 1451 1450 1447 1451 1459 1464 1462 1456 1451 1446 1440 1441 1444 1446 1449 1453 1452 1452 1455 1463 1477 1484 1474 1470 1474 1471 1477 1488 1476 1454 1449 1452 1451 1452 1453 1453 1454 1454 1455 1457 1458 1460 1463 1464 1466
1455 1453 1454 1456 1455 1455 1456 1453 1453 1454 1452 1450 1450 1451 1451 1452 1451 1449 1449 1449 1449 1448 1448 1448 1446 1446 1445 1442 1442 1443 1442 1442 1441 1439 1438 1438 1435 1432 1431 1433 1436 1437 1442 1448 1447 1445 1450 1459 1466 1465 1454 1443 1441 1442 1443 1444 1449 1454 1454 1450 1450 1451 1452 1458 1462 1463 1469 1475 1474 1481 1490 1475 1453 1449 1451 1451 1452 1453 1454 1454 1454 1456 1456 1458 1460 1462 1463 1465
1457 1456 1456 1456 1455 1456 1454 1450 1451 1453 1451 1450 1451 1451 1450 1450 1449 1448 1448 1446 1446 1446 1447 1446 1444 1443 1441 1439 1441 1442 1441 1442 1441 1435 1435 1436 1432 1429 1429 1432 1435 1436 1439 1442 1442 1445 1454 1460 1464 1469 1470 1463 1457 1456 1455 1452 1453 1455 1452 1448 1450 1449 1448 1451 1453 1458 1470 1472 1471 1481 1486 1471 1455 1451 1451 1451 1451 1451 1452 1453 1454 1455 1456 1458 1460 1461 1463 1465
1457 1456 1457 1457 1456 1456 1453 1448 1447 1448 1450 1451 1452 1450 1449 1448 1446 1446 1446 1444 1443 1444 1445 1443 1440 1440 1439 1439 1441 1440 1438 1441 1440 1434 1433 1433 1431 1428 1430 1432 1434 1434 1435 1436 1436 1441 1451 1455 1458 1467 1474 1474 1470 1465 1460 1454 1451 1451 1447 1445 1448 1448 1450 1455 1459 1467 1475 1470 1466 1475 1477 1464 1455 1454 1453 1452 1451 1452 1451 1452 1454 1455 1456 1458 1460 1461 1463 1464
1456 1454 1454 1455 1456 1455 1453 1450 1448 1447 1448 1451 1451 1449 1448 1447 1444 1444 1445 1444 1443 1442 1442 1441 1438 1439 1440 1440 1441 1441 1437 1435 1437 1436 1434 1432 1430 1429 1430 1431 1431 1431 1433 1435 1435 1439 1446 1448 1451 1457 1459 1457 1455 1448 1441 1442 1446 1449 1448 1447 1448 1447 1448 1452 1458 1466 1469 1467 1468 1468 1465 1463 1459 1455 1455 1453 1452 1452 1451 1450 1453 1455 1456 1458 1459 1461 1462 1464
1456 1453 1452 1454 1454 1453 1451 1450 1449 1447 1447 1450 1449 1448 1448 1447 1444 1444 1444 1443 1442 1441 1441 1439 1438 1440 1441 1441 1441 1440 1436 1433 1435 1436 1434 1432 1428 1427 1429 1430 1430 1431 1432 1434 1435 1438 1446 1448 1447 1450 1450 1445 1440 1435 1433 1439 1445 1445 1444 1446 1445 1444 1445 1450 1456 1457 1457 1467 1473 1463 1458 1465 1461 1452 1452 1452 1450 1450 1449 1449 1452 1454 1456 1458 1459 1461 1462 1464
1457 1456 1455 1456 1454 1451 1450 1450 1449 1448 1449 1449 1449 1448 1448 1447 1446 1446 1445 1442 1441 1441 1440 1440 1440 1439 1439 1440 1441 1440 1437 1436 1437 1436 1434 1433 1430 1428 1428 1429 1429 1430 1431 1433 1433 1434 1444 1449 1443 1444 1448 1443 1437 1437 1437 1439 1442 1440 1438 1440 1441 1443 1446 1449 1451 1448 1451 1464 1469 1459 1458 1463 1456 1448 1447 1448 1448 1449 1449 1451 1453 1455 1456 1458 1459 1461 1462 1463
1460 1458 1458 1458 1455 1451 1451 1451 1451 1450 1449 1449 1449 1448 1448 1447 1447 1446 1445 1444 1442 1439 1439 1441 1442 1440 1438 1437 1439 1440 1440 1442 1442 1439 1436 1436 1434 1430 1431 1432 1429 1428 1430 1432 1431 1432 1441 1445 1439 1439 1445 1442 1438 1440 1439 1439 1442 1441 1437 1435 1437 1441 1443 1444 1446 1446 1448 1455 1456 1454 1459 1458 1450 1446 1446 1446 1449 1450 1450 1453 1454 1455 1456 1457 1458 1460 1461 1463
1465 1463 1461 1460 1456 1453 1453 1452 1451 1450 1449 1449 1450 1448 1447 1448 1448 1446 1445 1446 1445 1441 1440 1443 1443 1440 1438 1436 1437 1440 1441 1443 1444 1442 1439 1439 1436 1432 1432 1433 1429 1428 1430 1431 1430 1432 1439 1442 1436 1437 1445 1443 1438 1439 1440 1440 1443 1443 1440 1437 1437 1440 1442 1444 1446 1448 1451 1454 1452 1454 1460 1457 1448 1445 1446 1448 1450 1450 1451 1453 1454 1455 1456 1457 1458 1460 1461 1463
1468 1468 1466 1464 1457 1453 1453 1452 1450 1450 1448 1447 1449 1447 1447 1448 1448 1448 1445 1443 1445 1444 1443 1445 1444 1440 1438 1437 1438 1440 1439 1439 1441 1439 1438 1438 1437 1433 1432 1430 1428 1430 1431 1430 1431 1433 1438 1441 1436 1440 1450 1446 1438 1440 1442 1440 1442 1445 1443 1442 1441 1442 1444 1446 1447 1447 1449 1453 1455 1457 1460 1456 1448 1446 1448 1449 1449 1450 1451 1452 1453 1455 1456 1457 1458 1459 1461 1463
1469 1468 1468 1467 1460 1453 1453 1451 1450 1450 1448 1447 1448 1449 1449 1449 1448 1449 1446 1442 1443 1444 1444 1444 1444 1441 1439 1439 1440 1441 1440 1438 1437 1436 1435 1435 1433 1431 1430 1428 1427 1430 1430 1429 1430 1431 1435 1439 1438 1441 1449 1445 1437 1438 1439 1442 1451 1453 1442 1437 1439 1440 1441 1443 1445 1445 1444 1446 1453 1457 1455 1450 1447 1447 1449 1449 1448 1450 1452 1452 1454 1455 1456 1457 1458 1459 1461 1462